Volver al catálogo

FENGYUN 1C DEB

ActivoPO
NORAD 30350·DEBRIS·🇨🇳 China

Lanzado May 10, 1999 desde Taiyuan Satellite Launch Center

Loading…

Próximos Pases (próximas 24 horas)

TLE

ActualizadoSource: Space-Track

Época: Sep 14, 2026, 08:48 UTC

1 30350U 99025ABM 26257.36677464  .00000691  00000-0  55248-3 0  9994
2 30350  98.1239  42.9614 0217400 268.3521 118.3184 13.83310323987920

Sigue FENGYUN 1C DEB en tiempo real con AllMySat

Download on the App Store